[[{"header":{"parameterUnit":"m.s-1","parameterCategory":1,"la1":30.2991,"la2":30.254,"lo1":-89.0895,"lo2":-89.0444,"dy":0.0017,"dx":0.0017,"nx":28,"ny":28,"refTime":"2023-08-08T21:00:00:Z","depth":0,"parameterNumber":2,"parameterNumberName":"U-component_of_WINDS"},"data":[0,0,0,0,0,0,0,0,0,0,0,0,0,0,0,0,0,0,0,0,0,0,0,0,0,0,0,0,0,0,0,0,0,0,0,0,0,0,0,0,0,0,0,0,0,0,0,0,0,0,0,0,0,0,0,0,0,0,4.0392,4.0392,0,4.0409,4.0409,4.041,4.0329,4.0327,4.0325,4.0322,4.034,4.0343,4.0345,0,0,0,0,0,0,0,0,0,0,0,0,0,4.0288,4.0291,4.0392,4.0392,4.0392,4.0409,4.0409,4.041,4.033,4.0327,4.0324,4.0321,4.0339,4.0342,4.0346,0,0,0,0,0,0,0,0,0,0,0,0,0,4.0322,4.0292,4.0392,4.0355,4.0351,4.0409,4.0409,4.041,4.033,4.0327,4.0323,4.032,4.0338,4.0342,4.0346,4.0441,0,0,4.0358,4.036,0,0,0,0,0,0,0,0,4.0321,4.0326,4.036,4.0357,4.0354,4.0364,4.0379,4.042,4.0331,4.0338,4.0322,4.0318,4.0351,4.0354,4.0364,4.0441,4.0442,4.0359,4.0361,4.0363,4.0364,0,0,0,0,0,0,0,4.0318,4.0325,4.0399,4.036,4.0357,4.0336,4.0337,4.0387,4.0364,4.0338,4.0332,4.0335,4.0348,4.0361,4.0364,4.0442,4.0358,4.0362,4.0364,4.0366,4.0594,4.0597,0,0,0,0,0,0,4.0321,4.0324,4.0398,4.0399,4.0328,4.0341,4.0342,4.0364,4.0363,4.036,4.0338,4.0331,4.0356,4.036,4.0365,4.0472,4.0363,4.0366,4.0369,4.059,4.0595,4.0599,0,0,0,0,0,0,4.0319,4.0328,4.0398,4.036,4.0367,4.0347,4.0372,4.0366,4.0378,4.0363,4.0359,4.0355,4.0353,4.0359,4.0421,4.0471,4.0368,4.0372,4.0586,4.0591,4.0597,4.0689,0,0,0,0,0,0,4.0316,4.0328,4.0364,4.0361,4.0369,4.0455,4.0375,4.0369,4.0385,4.0377,4.0378,4.0375,4.0351,4.0416,4.0425,4.0475,4.0375,4.0581,4.0588,4.0595,4.0682,4.0697,4.0711,0,0,0,0,0,4.0313,4.0391,4.0367,4.0376,4.0414,4.0458,4.0462,4.0433,4.039,4.0425,4.0415,4.0375,4.0465,4.0423,4.0433,4.0485,4.0578,4.0586,4.0594,4.0675,4.0694,4.071,0,0,0,0,0,0,4.0401,4.039,4.0363,4.0442,4.0451,4.0444,4.0488,4.0455,4.0477,4.0468,4.0431,4.0432,4.05,4.0499,4.0452,4.0574,4.0514,4.0524,4.0572,4.059,4.0604,4.0601,4.0378,0,0,0,0,0,4.043,4.0466,4.0455,4.0525,4.0531,4.0509,4.0527,4.0504,4.0512,4.0516,4.051,4.052,4.0549,4.057,4.0597,4.0682,4.0679,4.0722,4.0737,4.0749,4.0757,4.0799,4.0816,4.0626,4.0626,4.0625,0,0,4.0489,4.0488,4.0513,4.0543,4.0547,4.0585,4.0513,4.0557,4.0584,4.0522,4.0579,4.0576,4.0584,4.0657,4.0689,4.0658,4.081,4.0759,4.0769,4.0771,4.0809,4.0827,4.0843,4.0631,4.063,4.0629,0,0,4.0616,4.062,4.0677,4.0683,4.069,4.0674,4.0688,4.0686,4.0681,4.0738,4.0691,4.0723,4.0777,4.0783,4.0793,4.0921,4.0883,4.0931,4.1005,4.1046,4.1061,4.1074,4.1116,4.1132,4.094,4.094,4.094,0,4.0689,4.0743,4.0711,4.0757,4.077,4.0716,4.0772,4.078,4.0796,4.0806,4.0771,4.0835,4.0837,4.0909,4.0939,4.0951,4.0964,4.0929,4.1062,4.1074,4.1086,4.1125,4.1142,4.0946,4.0945,4.0945,4.0944,0,4.083,4.0869,4.0915,4.093,4.0949,4.1,4.0974,4.0997,4.0972,4.096,4.1017,4.1018,4.1042,4.1058,4.1035,4.1126,4.1106,4.1068,4.1006,4.111,4.1146,4.1162,4.0954,4.0952,4.095,4.0949,0,0,4.1012,4.1008,4.1025,4.1029,4.1033,4.1061,4.111,4.1133,4.1151,4.1165,4.1202,4.1248,4.1211,4.1223,4.12,4.1236,4.1332,4.1192,4.1192,4.1215,4.1429,4.1455,4.1474,4.1308,4.1311,4.1314,4.1427,0,4.1133,4.1214,4.1185,4.1268,4.1301,4.1249,4.1291,4.1297,4.1287,4.1313,4.1302,4.1333,4.1285,4.1291,4.1324,4.1313,4.1374,4.1305,4.1341,4.1342,4.1337,4.1493,4.1522,4.1629,4.1441,4.1444,4.1445,0,4.1285,4.1302,4.1387,4.1381,4.1394,4.1432,4.1449,4.1476,4.1481,4.1471,4.1483,4.1452,4.1497,4.1438,4.1498,4.1452,4.1465,4.1462,4.1465,4.1465,4.1398,4.1493,4.1662,4.1677,4.1468,4.1466,4.1465,0,4.1404,4.1449,4.1504,4.151,4.1506,4.1533,4.1533,4.1535,4.1549,4.1565,4.1574,4.1596,4.1607,4.1624,4.1598,4.1558,4.1661,4.16,4.1652,4.1653,4.1674,4.1672,4.1844,4.1689,4.1688,4.1688,4.1688,0,4.154,4.1593,4.1557,4.1591,4.1648,4.1615,4.1672,4.1666,4.1668,4.1699,4.1657,4.1687,4.1653,4.168,4.1661,4.1712,4.1718,4.171,4.1703,4.1711,4.1712,4.1717,4.1708,4.1692,4.1691,4.1691,4.169,0,4.1681,4.166,4.1716,4.1707,4.1706,4.1748,4.174,4.1771,4.1757,4.1797,4.1804,4.1783,4.1812,4.1789,4.1818,4.1805,4.1872,4.1857,4.1869,4.1864,4.1915,4.1909,4.2093,4.2114,4.1949,4.1951,4.1952,0,4.1767,4.1807,4.1801,4.1818,4.182,4.1849,4.1863,4.1832,4.1849,4.1856,4.1885,4.1911,4.1928,4.1977,4.1964,4.1985,4.1968,4.2031,4.1971,4.1977,4.1965,4.1961,4.1963,4.2042,4.2044,4.2046,4.2047,0,4.1922,4.1908,4.193,4.1948,4.1966,4.1979,4.1988,4.2005,4.1973,4.1994,4.2022,4.2036,4.2064,4.2089,4.2105,4.2104,4.207,4.2067,4.2079,4.2086,4.209,4.2085,4.1899,4.2062,4.206,4.2059,4.2059,4.2058,4.2035,4.2066,4.2066,4.2091,4.2095,4.2104,4.2131,4.2121,4.2143,4.2163,4.2144,4.2177,4.218,4.2198,4.2201,4.2226,4.22,4.2219,4.2223,4.2227,4.2233,4.2089,4.223,4.2229,4.2229,4.2229,4.2228,0,4.2184,4.2181,4.2204,4.2218,4.2237,4.2203,4.2212,4.223,4.2259,4.2264,4.2282,4.2314,4.2337,4.2326,4.2346,4.2368,4.2352,4.2374,4.237,4.237,4.2257,4.2243,4.2386,4.2386,4.2386,4.2386,4.2386,4.2385,4.2263,4.2312,4.2299,4.2349,4.2346,4.2377,4.2384,4.2392,4.2395,4.2431,4.245,4.2443,4.244,4.2459,4.2479,4.2475,4.2483,4.2509,4.2499,4.2394,4.2378,4.2363,4.2349,4.2512,4.2512,4.2609,4.261,4.261]},{"header":{"parameterUnit":"m.s-1","parameterCategory":1,"la1":30.2991,"la2":30.254,"lo1":-89.0895,"lo2":-89.0444,"dy":0.0017,"dx":0.0017,"nx":28,"ny":28,"refTime":"2023-08-08T21:00:00:Z","depth":0,"parameterNumber":3,"parameterNumberName":"V-component_of_WINDS"},"data":[0,0,0,0,0,0,0,0,0,0,0,0,0,0,0,0,0,0,0,0,0,0,0,0,0,0,0,0,0,0,0,0,0,0,0,0,0,0,0,0,0,0,0,0,0,0,0,0,0,0,0,0,0,0,0,0,0,0,6.8557,6.8557,0,6.8639,6.864,6.8641,6.8604,6.8602,6.86,6.8598,6.8675,6.8679,6.8683,0,0,0,0,0,0,0,0,0,0,0,0,0,6.8359,6.8362,6.8556,6.8558,6.8559,6.8639,6.864,6.8641,6.8604,6.8602,6.8599,6.8597,6.8674,6.8679,6.8683,0,0,0,0,0,0,0,0,0,0,0,0,0,6.8443,6.8364,6.8556,6.855,6.855,6.8639,6.864,6.8641,6.8605,6.8602,6.8599,6.8596,6.8673,6.8678,6.8684,6.8781,0,0,6.8702,6.8705,0,0,0,0,0,0,0,0,6.8438,6.845,6.855,6.8551,6.8551,6.8608,6.8599,6.8688,6.8606,6.8584,6.8598,6.8594,6.8655,6.8662,6.8684,6.8785,6.8788,6.8703,6.8706,6.8709,6.8711,0,0,0,0,0,0,0,6.8433,6.8447,6.8589,6.8551,6.8552,6.854,6.8549,6.8615,6.8635,6.8586,6.8583,6.8594,6.8655,6.8679,6.8686,6.8789,6.8703,6.8708,6.8712,6.8714,6.8971,6.8974,0,0,0,0,0,0,6.8428,6.8442,6.8586,6.8591,6.8486,6.8546,6.8556,6.8593,6.8634,6.8638,6.8596,6.8592,6.867,6.8679,6.8688,6.8803,6.8709,6.8714,6.8718,6.8968,6.8972,6.8975,0,0,0,0,0,0,6.8424,6.8441,6.8583,6.8516,6.8533,6.8553,6.8595,6.8596,6.862,6.8643,6.8645,6.8618,6.8668,6.868,6.8758,6.8805,6.8717,6.8722,6.8964,6.8969,6.8974,6.9034,0,0,0,0,0,0,6.8418,6.844,6.8479,6.8517,6.8537,6.8654,6.8598,6.86,6.8631,6.8626,6.8663,6.8666,6.8666,6.875,6.8764,6.8811,6.8727,6.896,6.8966,6.8972,6.9028,6.904,6.9051,0,0,0,0,0,6.8411,6.8492,6.8481,6.8499,6.8587,6.8657,6.8668,6.8669,6.8635,6.8673,6.8687,6.8665,6.8798,6.8758,6.8774,6.8824,6.8957,6.8964,6.8972,6.9022,6.9038,6.9051,0,0,0,0,0,0,6.8456,6.8497,6.8485,6.8581,6.8616,6.8651,6.8699,6.8685,6.8728,6.8721,6.8718,6.8727,6.8807,6.8824,6.8778,6.8919,6.8872,6.8883,6.8905,6.892,6.8931,6.8924,6.8732,0,0,0,0,0,6.8478,6.8534,6.8565,6.8646,6.8665,6.8679,6.871,6.8707,6.8742,6.8756,6.8776,6.8809,6.8858,6.889,6.8936,6.903,6.9036,6.9072,6.9084,6.9093,6.9102,6.915,6.9166,6.9,6.9,6.8999,0,0,6.8521,6.8551,6.8586,6.8656,6.8683,6.8738,6.8692,6.8753,6.8793,6.8765,6.884,6.8856,6.8892,6.8978,6.9017,6.8994,6.9149,6.9103,6.911,6.9114,6.9159,6.9175,6.9189,6.9005,6.9004,6.9003,0,0,6.863,6.8659,6.8729,6.8757,6.8799,6.8808,6.8824,6.8861,6.8871,6.8947,6.8926,6.8973,6.9058,6.9084,6.9108,6.9225,6.9205,6.924,6.93,6.9347,6.936,6.9372,6.9411,6.9425,6.9249,6.925,6.925,0,6.8678,6.8764,6.8766,6.8829,6.8858,6.8838,6.8907,6.8933,6.8987,6.9007,6.8981,6.9086,6.9109,6.92,6.9228,6.925,6.9266,6.9235,6.9359,6.937,6.9381,6.9418,6.9433,6.9253,6.9253,6.9253,6.9252,0,6.882,6.8879,6.893,6.8985,6.9021,6.9086,6.9095,6.9131,6.9125,6.9136,6.9212,6.9239,6.9289,6.9311,6.9305,6.94,6.9384,6.9359,6.9311,6.94,6.9435,6.945,6.9259,6.9257,6.9256,6.9255,0,0,6.8958,6.9013,6.9031,6.9055,6.9099,6.9144,6.9207,6.9259,6.9288,6.9326,6.9376,6.9449,6.9425,6.9452,6.9449,6.9491,6.9579,6.946,6.946,6.9479,6.9682,6.9699,6.9716,6.9567,6.957,6.9572,6.9678,0,6.9067,6.9181,6.9184,6.9287,6.9339,6.932,6.9375,6.9406,6.9418,6.9462,6.9473,6.9524,6.949,6.9506,6.9547,6.956,6.9619,6.9552,6.9611,6.9613,6.96,6.9735,6.9754,6.9853,6.9692,6.9694,6.9696,0,6.921,6.9254,6.9363,6.9398,6.942,6.947,6.9516,6.956,6.9594,6.9599,6.963,6.9621,6.9682,6.9634,6.9717,6.9671,6.9695,6.9705,6.9709,6.9712,6.9658,6.9739,6.9884,6.9898,6.9718,6.9716,6.9714,0,6.9297,6.9383,6.9459,6.948,6.9524,6.9558,6.9578,6.9609,6.9639,6.9679,6.9698,6.9744,6.9768,6.9802,6.9804,6.977,6.9887,6.984,6.989,6.989,6.9914,6.9912,7.0062,6.9933,6.9933,6.9933,6.9932,0,6.9417,6.9484,6.9498,6.9544,6.9617,6.9619,6.969,6.9706,6.9734,6.9781,6.9766,6.981,6.9811,6.9855,6.9856,6.9923,6.9934,6.9938,6.9937,6.9938,6.9937,6.9952,6.9944,6.9937,6.9936,6.9935,6.9934,0,6.9526,6.9539,6.9619,6.9654,6.9665,6.9716,6.9745,6.9787,6.9798,6.9857,6.987,6.9885,6.9936,6.9942,7.0,7.0001,7.0081,7.0074,7.007,7.0068,7.0117,7.0111,7.028,7.0301,7.0161,7.0162,7.0163,0,6.9601,6.9652,6.9693,6.9724,6.9746,6.9797,6.9828,6.9831,6.9863,6.9905,6.9942,6.9992,7.0031,7.0112,7.0127,7.0171,7.0163,7.0219,7.0169,7.0168,7.0161,7.0157,7.0161,7.0228,7.023,7.0231,7.0232,0,6.9732,6.9736,6.9782,6.9831,6.9869,6.9907,6.9942,6.9968,6.9975,7.0012,7.0064,7.0095,7.0155,7.0204,7.0247,7.0263,7.0248,7.0248,7.0261,7.0262,7.0256,7.0257,7.0094,7.0243,7.0242,7.0241,7.0241,7.024,6.9824,6.9868,6.9903,6.9955,6.9982,7.0016,7.0057,7.0073,7.0118,7.0168,7.0167,7.0224,7.0254,7.0311,7.0331,7.0374,7.0355,7.0375,7.038,7.0384,7.0388,7.0252,7.0382,7.0382,7.0381,7.0381,7.0381,0,6.9952,6.9974,7.0022,7.0073,7.0113,7.0098,7.0136,7.017,7.0221,7.0252,7.0292,7.0351,7.0397,7.0416,7.0461,7.0491,7.0485,7.0502,7.0499,7.0502,7.0404,7.0386,7.0507,7.0507,7.0507,7.0507,7.0507,7.0506,7.0024,7.0096,7.0104,7.0188,7.0209,7.0266,7.0289,7.0318,7.0343,7.0411,7.045,7.0463,7.0488,7.0534,7.0575,7.0579,7.0595,7.0615,7.0616,7.0522,7.051,7.0497,7.0481,7.0619,7.0619,7.071,7.0711,7.0712]}]]